Location: Bailey Volunteer Fire Department
(33.4359°N, 96.1680°W)
Time: 18:00:09
(UTC+00:00)

Cosmos 1553 Rocket - Pass Details

Date: 13 December 2025
Orbit: 942 x 1006 km, 82.9° (Epoch: 14 January)

Event Time Altitude Azimuth Distance (km) Brightness Sun altitude
Rises 12:21:30 0° 350° (N) 3,734 6.8 -12.0°
Reaches altitude 10° 12:24:03 10° 348° (NNW) 2,784 6.1 -11.5°
Maximum altitude 12:30:24 68° 267° (W) 1,075 4.0 -10.3°
Drops below altitude 10° 12:36:43 10° 186° (S) 2,764 6.6 -9.1°
Sets 12:39:14 0° 183° (S) 3,705 7.3 -8.6°
